Vlieland, Netherlands

7:00 AM CEST on April 27, 2018 (GMT +0200)
Vlieland

Weather History for EHVL - December, 2013

Change the Weather History Date:

Saturday, December 7, 2013

  Actual Average Record
Temperature  
Mean Temperature 44 °F -  
Max Temperature 48 °F 42 °F 53 °F (2007)
Min Temperature 39 °F 37 °F 24 °F (2010)
Degree Days  
Heating Degree Days 22    
Moisture  
Dew Point 40 °F    
Average Humidity 84    
Maximum Humidity 93    
Minimum Humidity 57    
Precipitation  
Precipitation 0.00 in - - ()
Sea Level Pressure  
Sea Level Pressure 30.16 in    
Wind  
Wind Speed 20 mph ()    
Max Wind Speed 29 mph    
Max Gust Speed 38 mph    
Visibility 6.1 miles    
Events Rain    
Averages and records for this station are not official NWS values.
T = Trace of Precipitation, MM = Missing Value Source: Averaged Metar Reports

Daily Weather History Graph

Daily Weather History Graph

Search for Another Location

Airport or City:

Astronomy

Dec. 07, 2013 Rise Set
Actual Time 8:40 AM CET 4:23 PM CET
Civil Twilight 7:58 AM CET 5:05 PM CET
Nautical Twilight 7:13 AM CET 5:49 PM CET
Astronomical Twilight 6:31 AM CET 6:32 PM CET
Moon 11:47 AM CET (12/7) 10:18 PM CET (12/7)
Length of Visible Light 9h 06m
Length of Day
7h 42m
Waxing Crescent, 26% of the Moon is Illuminated
Dec 7
Waxing Crescent
Dec 9
First Quarter
Dec 17
Full
Dec 25
Last Quarter
Jan 1
New

Hourly Weather History & Observations

Time (CET) Temp. Windchill Dew Point Humidity Pressure Visibility Wind Dir Wind Speed Gust Speed Precip Events Conditions
12:01 AM 39.2 °F 28.3 °F 33.8 °F 81% 30.21 in 6.2 mi NNW 25.3 mph - N/A Rain Light Rain
12:25 AM 41.0 °F 30.5 °F 33.8 °F 76% 30.21 in 6.2 mi NW 26.5 mph 38.0 mph N/A   Mostly Cloudy
12:29 AM 39.2 °F 27.6 °F 33.8 °F 81% 30.21 in 3.7 mi NW 28.8 mph - N/A Rain Light Rain
12:32 AM 39.2 °F 27.8 °F 33.8 °F 81% 30.21 in 5.0 mi NNW 27.6 mph - N/A   Haze
12:48 AM 39.2 °F 28.3 °F 33.8 °F 81% 30.21 in 6.2 mi NW 25.3 mph - N/A   Scattered Clouds
12:55 AM 41.0 °F 30.9 °F 33.8 °F 76% 30.21 in 6.2 mi NW 24.2 mph - N/A   Mostly Cloudy
1:25 AM 41.0 °F 30.5 °F 33.8 °F 76% 30.21 in 6.2 mi NW 26.5 mph - N/A   Mostly Cloudy
1:37 AM 41.0 °F 30.2 °F 32.0 °F 70% 30.21 in 6.2 mi NW 27.6 mph - N/A   Mostly Cloudy
1:43 AM 39.2 °F 28.3 °F 33.8 °F 81% 30.21 in 5.6 mi NW 25.3 mph - N/A   Drizzle
1:44 AM 39.2 °F 29.0 °F 33.8 °F 81% 30.21 in 6.2 mi NW 21.9 mph - N/A   Mostly Cloudy
1:55 AM 41.0 °F 31.1 °F 33.8 °F 76% 30.21 in 6.2 mi NW 23.0 mph - N/A   Mostly Cloudy
2:25 AM 42.8 °F 33.1 °F 30.2 °F 61% 30.21 in 6.2 mi NW 25.3 mph - N/A   Overcast
2:55 AM 41.0 °F 32.2 °F 33.8 °F 76% 30.21 in 6.2 mi NNW 18.4 mph - N/A   Overcast
3:11 AM 41.0 °F 30.0 °F 33.8 °F 76% 30.21 in 3.7 mi NW 28.8 mph - N/A Rain Light Rain
3:15 AM 39.2 °F 27.6 °F 33.8 °F 81% 30.24 in 5.6 mi NW 28.8 mph - N/A Rain Light Rain
3:25 AM 41.0 °F 31.1 °F 33.8 °F 76% 30.24 in 6.2 mi NW 23.0 mph - N/A   Overcast
3:55 AM 42.8 °F 33.3 °F 32.0 °F 66% 30.21 in 6.2 mi NW 24.2 mph - N/A   Overcast
4:11 AM 41.0 °F 31.1 °F 35.6 °F 81% 30.24 in 6.2 mi NNW 23.0 mph - N/A   Mostly Cloudy
4:15 AM 41.0 °F 31.4 °F 33.8 °F 76% 30.24 in 6.2 mi NNW 21.9 mph - N/A   Mostly Cloudy
4:25 AM 41.0 °F 31.9 °F 33.8 °F 76% 30.24 in 6.2 mi NNW 19.6 mph - N/A   Mostly Cloudy
4:55 AM 41.0 °F 32.2 °F 35.6 °F 81% 30.21 in 6.2 mi NW 18.4 mph - N/A   Overcast
5:25 AM 42.8 °F 34.0 °F 30.2 °F 61% 30.21 in 6.2 mi WNW 20.7 mph - N/A   Overcast
5:55 AM 42.8 °F 34.3 °F 28.4 °F 57% 30.21 in 6.2 mi WNW 19.6 mph - N/A   Overcast
6:25 AM 42.8 °F 34.5 °F 32.0 °F 66% 30.21 in 6.2 mi WNW 18.4 mph - N/A   Mostly Cloudy
6:50 AM 41.0 °F 32.5 °F 33.8 °F 76% 30.21 in 6.2 mi WNW 17.3 mph - N/A   Light Drizzle
6:55 AM 42.8 °F 34.5 °F 33.8 °F 70% 30.21 in 6.2 mi WNW 18.4 mph - N/A   Light Drizzle
6:59 AM 41.0 °F 32.2 °F 33.8 °F 76% 30.21 in 6.2 mi West 18.4 mph - N/A   Light Drizzle
7:25 AM 41.0 °F 32.8 °F 35.6 °F 81% 30.21 in 6.2 mi WNW 16.1 mph - N/A   Mostly Cloudy
7:31 AM 41.0 °F 32.5 °F 35.6 °F 81% 30.21 in 6.2 mi West 17.3 mph - N/A   Mostly Cloudy
7:35 AM 41.0 °F 32.5 °F 35.6 °F 81% 30.21 in 3.1 mi West 17.3 mph - N/A   Haze
7:41 AM 41.0 °F 32.5 °F 35.6 °F 81% 30.21 in 4.3 mi West 17.3 mph - N/A   Light Drizzle
7:47 AM 41.0 °F 33.1 °F 37.4 °F 87% 30.21 in 5.0 mi West 15.0 mph - N/A   Light Drizzle
7:51 AM 41.0 °F 33.5 °F 37.4 °F 87% 30.21 in 6.2 mi WNW 13.8 mph - N/A   Mostly Cloudy
7:55 AM 41.0 °F 33.5 °F 37.4 °F 87% 30.21 in 6.2 mi WNW 13.8 mph - N/A   Mostly Cloudy
7:59 AM 41.0 °F 33.5 °F 37.4 °F 87% 30.21 in 6.2 mi WNW 13.8 mph - N/A   Mostly Cloudy
8:01 AM 41.0 °F 33.5 °F 37.4 °F 87% 30.21 in 6.2 mi WNW 13.8 mph - N/A   Mostly Cloudy
8:17 AM 41.0 °F 33.9 °F 37.4 °F 87% 30.21 in 6.2 mi WNW 12.7 mph - N/A   Overcast
8:25 AM 41.0 °F 34.3 °F 37.4 °F 87% 30.21 in 6.2 mi WNW 11.5 mph - N/A   Mostly Cloudy
8:32 AM 41.0 °F 34.7 °F 37.4 °F 87% 30.21 in 5.6 mi WNW 10.4 mph - N/A   Mostly Cloudy
8:37 AM 41.0 °F 34.7 °F 37.4 °F 87% 30.21 in 6.2 mi WNW 10.4 mph - N/A   Mostly Cloudy
8:41 AM 41.0 °F 34.3 °F 37.4 °F 87% 30.21 in 6.2 mi WNW 11.5 mph - N/A   Overcast
8:55 AM 41.0 °F 34.3 °F 37.4 °F 87% 30.21 in 6.2 mi West 11.5 mph - N/A   Overcast
9:25 AM 42.8 °F 35.1 °F 35.6 °F 76% 30.21 in 6.2 mi West 16.1 mph - N/A   Overcast
9:55 AM 42.8 °F 35.1 °F 37.4 °F 81% 30.21 in 6.2 mi West 16.1 mph - N/A   Overcast
10:25 AM 42.8 °F 35.4 °F 37.4 °F 81% 30.21 in 6.2 mi West 15.0 mph - N/A   Overcast
10:39 AM 42.8 °F 35.4 °F 37.4 °F 81% 30.21 in 6.2 mi West 15.0 mph - N/A   Overcast
10:43 AM 42.8 °F 35.4 °F 37.4 °F 81% 30.18 in 6.2 mi West 15.0 mph - N/A   Overcast
10:55 AM 42.8 °F 35.1 °F 39.2 °F 87% 30.18 in 6.2 mi West 16.1 mph - N/A   Overcast
10:59 AM 42.8 °F 35.4 °F 39.2 °F 87% 30.18 in 6.2 mi West 15.0 mph - N/A   Overcast
11:16 AM 42.8 °F 35.1 °F 39.2 °F 87% 30.18 in 6.2 mi West 16.1 mph - N/A   Overcast
11:20 AM 42.8 °F 35.1 °F 39.2 °F 87% 30.18 in 6.2 mi West 16.1 mph - N/A   Overcast
11:25 AM 42.8 °F 35.4 °F 39.2 °F 87% 30.18 in 6.2 mi West 15.0 mph - N/A   Overcast
11:43 AM 44.6 °F 38.1 °F 41.0 °F 87% 30.18 in 6.2 mi West 13.8 mph - N/A   Mostly Cloudy
11:47 AM 44.6 °F 38.1 °F 41.0 °F 87% 30.18 in 6.2 mi West 13.8 mph - N/A   Mostly Cloudy
11:55 AM 44.6 °F 38.1 °F 41.0 °F 87% 30.18 in 6.2 mi West 13.8 mph - N/A   Mostly Cloudy
11:59 AM 44.6 °F 38.1 °F 41.0 °F 87% 30.18 in 6.2 mi West 13.8 mph - N/A   Mostly Cloudy
12:14 PM 44.6 °F 38.4 °F 41.0 °F 87% 30.18 in 6.2 mi West 12.7 mph - N/A   Overcast
12:18 PM 44.6 °F 38.4 °F 41.0 °F 87% 30.18 in 6.2 mi West 12.7 mph - N/A   Overcast
12:25 PM 44.6 °F 37.8 °F 41.0 °F 87% 30.18 in 6.2 mi West 15.0 mph - N/A   Overcast
12:41 PM 44.6 °F 37.2 °F 41.0 °F 87% 30.15 in 6.2 mi West 17.3 mph - N/A   Overcast
12:55 PM 44.6 °F 37.4 °F 41.0 °F 87% 30.15 in 6.2 mi West 16.1 mph - N/A   Mostly Cloudy
12:59 PM 44.6 °F 37.4 °F 41.0 °F 87% 30.15 in 6.2 mi West 16.1 mph - N/A   Mostly Cloudy
1:25 PM 44.6 °F 38.4 °F 42.8 °F 93% 30.15 in 6.2 mi West 12.7 mph - N/A   Mostly Cloudy
1:32 PM 44.6 °F 38.4 °F 42.8 °F 93% 30.15 in 6.2 mi West 12.7 mph - N/A   Partly Cloudy
1:36 PM 46.4 °F 40.7 °F 42.8 °F 87% 30.15 in 4.3 mi West 12.7 mph - N/A   Partly Cloudy
1:47 PM 46.4 °F 39.8 °F 44.6 °F 93% 30.15 in 5.6 mi West 16.1 mph - N/A   Mostly Cloudy
1:51 PM 46.4 °F 39.8 °F 44.6 °F 93% 30.15 in 5.0 mi West 16.1 mph - N/A   Overcast
1:55 PM 46.4 °F 39.8 °F 42.8 °F 87% 30.15 in 5.6 mi West 16.1 mph - N/A   Mostly Cloudy
1:59 PM 46.4 °F 40.1 °F 42.8 °F 87% 30.12 in 6.2 mi West 15.0 mph - N/A   Overcast
2:03 PM 46.4 °F 40.1 °F 44.6 °F 93% 30.12 in 6.2 mi West 15.0 mph - N/A   Mostly Cloudy
2:04 PM 46.4 °F 40.1 °F 44.6 °F 93% 30.12 in 5.6 mi West 15.0 mph - N/A   Mostly Cloudy
2:25 PM 46.4 °F 39.0 °F 42.8 °F 87% 30.12 in 6.2 mi West 19.6 mph - N/A   Mostly Cloudy
2:32 PM 46.4 °F 39.0 °F 42.8 °F 87% 30.12 in 6.2 mi West 19.6 mph - N/A   Mostly Cloudy
2:36 PM 46.4 °F 39.0 °F 42.8 °F 87% 30.12 in 6.2 mi West 19.6 mph - N/A   Mostly Cloudy
2:55 PM 46.4 °F 38.5 °F 42.8 °F 87% 30.12 in 6.2 mi West 21.9 mph - N/A   Mostly Cloudy
3:01 PM 46.4 °F 38.5 °F 42.8 °F 87% 30.12 in 6.2 mi West 21.9 mph - N/A   Mostly Cloudy
3:08 PM 46.4 °F 38.5 °F 42.8 °F 87% 30.12 in 6.2 mi West 21.9 mph - N/A   Mostly Cloudy
3:12 PM 46.4 °F 38.5 °F 42.8 °F 87% 30.12 in 6.2 mi West 21.9 mph - N/A   Mostly Cloudy
3:16 PM 46.4 °F 38.7 °F 42.8 °F 87% 30.12 in 6.2 mi West 20.7 mph - N/A   Mostly Cloudy
3:25 PM 46.4 °F 38.5 °F 42.8 °F 87% 30.12 in 6.2 mi West 21.9 mph - N/A   Mostly Cloudy
3:29 PM 46.4 °F 38.3 °F 42.8 °F 87% 30.12 in 6.2 mi West 23.0 mph - N/A   Mostly Cloudy
3:33 PM 46.4 °F 38.3 °F 42.8 °F 87% 30.12 in 6.2 mi West 23.0 mph - N/A   Overcast
3:42 PM 46.4 °F 38.3 °F 42.8 °F 87% 30.12 in 6.2 mi West 23.0 mph - N/A   Mostly Cloudy
3:46 PM 46.4 °F 38.3 °F 42.8 °F 87% 30.12 in 6.2 mi West 23.0 mph - N/A   Mostly Cloudy
3:50 PM 46.4 °F 38.3 °F 42.8 °F 87% 30.12 in 6.2 mi West 23.0 mph - N/A   Mostly Cloudy
3:55 PM 46.4 °F 38.3 °F 42.8 °F 87% 30.12 in 6.2 mi West 23.0 mph - N/A   Mostly Cloudy
3:59 PM 46.4 °F 38.3 °F 42.8 °F 87% 30.12 in 6.2 mi West 23.0 mph - N/A   Mostly Cloudy
4:14 PM 46.4 °F 38.5 °F 42.8 °F 87% 30.12 in 6.2 mi West 21.9 mph - N/A   Overcast
4:18 PM 46.4 °F 38.5 °F 42.8 °F 87% 30.12 in 6.2 mi West 21.9 mph - N/A   Mostly Cloudy
4:25 PM 46.4 °F 38.3 °F 42.8 °F 87% 30.12 in 6.2 mi West 23.0 mph - N/A   Mostly Cloudy
4:34 PM 46.4 °F 38.3 °F 42.8 °F 87% 30.12 in 6.2 mi West 23.0 mph - N/A   Mostly Cloudy
4:39 PM 46.4 °F 38.3 °F 42.8 °F 87% 30.12 in 6.2 mi West 23.0 mph - N/A   Overcast
4:43 PM 46.4 °F 38.3 °F 42.8 °F 87% 30.12 in 6.2 mi West 23.0 mph - N/A   Mostly Cloudy
4:49 PM 46.4 °F 38.3 °F 42.8 °F 87% 30.12 in 6.2 mi West 23.0 mph - N/A   Mostly Cloudy
4:55 PM 46.4 °F 38.5 °F 42.8 °F 87% 30.12 in 6.2 mi West 21.9 mph - N/A   Mostly Cloudy
5:05 PM 46.4 °F 38.5 °F 42.8 °F 87% 30.12 in 6.2 mi West 21.9 mph - N/A   Overcast
5:25 PM 46.4 °F 38.7 °F 42.8 °F 87% 30.12 in 6.2 mi West 20.7 mph - N/A   Overcast
5:35 PM 46.4 °F 38.7 °F 42.8 °F 87% 30.12 in 6.2 mi West 20.7 mph - N/A   Mostly Cloudy
5:39 PM 46.4 °F 38.7 °F 42.8 °F 87% 30.12 in 6.2 mi West 20.7 mph - N/A   Mostly Cloudy
5:46 PM 46.4 °F 38.7 °F 42.8 °F 87% 30.12 in 6.2 mi West 20.7 mph - N/A   Mostly Cloudy
5:55 PM 46.4 °F 38.7 °F 42.8 °F 87% 30.12 in 6.2 mi West 20.7 mph - N/A   Overcast
5:59 PM 46.4 °F 38.5 °F 42.8 °F 87% 30.12 in 6.2 mi West 21.9 mph - N/A   Overcast
6:03 PM 46.4 °F 38.5 °F 42.8 °F 87% 30.12 in 6.2 mi West 21.9 mph - N/A   Mostly Cloudy
6:09 PM 46.4 °F 38.3 °F 42.8 °F 87% 30.12 in 6.2 mi West 23.0 mph - N/A   Mostly Cloudy
6:19 PM 46.4 °F 38.5 °F 42.8 °F 87% 30.12 in 6.2 mi West 21.9 mph - N/A   Mostly Cloudy
6:25 PM 46.4 °F 38.7 °F 42.8 °F 87% 30.12 in 6.2 mi West 20.7 mph - N/A   Mostly Cloudy
6:31 PM 46.4 °F 38.7 °F 42.8 °F 87% 30.12 in 6.2 mi West 20.7 mph - N/A   Mostly Cloudy
6:32 PM 46.4 °F 38.7 °F 42.8 °F 87% 30.12 in 6.2 mi West 20.7 mph - N/A   Mostly Cloudy
6:39 PM 46.4 °F 38.7 °F 42.8 °F 87% 30.12 in 6.2 mi West 20.7 mph - N/A   Mostly Cloudy
6:55 PM 46.4 °F 38.5 °F 42.8 °F 87% 30.12 in 6.2 mi West 21.9 mph - N/A   Mostly Cloudy
7:05 PM 46.4 °F 38.5 °F 42.8 °F 87% 30.12 in 6.2 mi West 21.9 mph - N/A   Mostly Cloudy
7:25 PM 46.4 °F 38.5 °F 42.8 °F 87% 30.12 in 6.2 mi West 21.9 mph - N/A   Overcast
7:55 PM 46.4 °F 38.3 °F 42.8 °F 87% 30.12 in 6.2 mi West 23.0 mph - N/A   Mostly Cloudy
7:59 PM 46.4 °F 38.3 °F 42.8 °F 87% 30.12 in 6.2 mi West 23.0 mph - N/A   Mostly Cloudy
8:03 PM 46.4 °F 38.3 °F 42.8 °F 87% 30.12 in 6.2 mi West 23.0 mph - N/A   Mostly Cloudy
8:07 PM 46.4 °F 38.3 °F 42.8 °F 87% 30.12 in 6.2 mi West 23.0 mph - N/A   Mostly Cloudy
8:11 PM 46.4 °F 38.3 °F 42.8 °F 87% 30.12 in 6.2 mi West 23.0 mph - N/A   Overcast
8:12 PM 46.4 °F 38.5 °F 42.8 °F 87% 30.12 in 6.2 mi West 21.9 mph - N/A   Overcast
8:19 PM 46.4 °F 38.5 °F 42.8 °F 87% 30.12 in 6.2 mi West 21.9 mph - N/A   Mostly Cloudy
8:25 PM 46.4 °F 38.3 °F 42.8 °F 87% 30.12 in 6.2 mi West 23.0 mph - N/A   Mostly Cloudy
8:29 PM 46.4 °F 38.3 °F 42.8 °F 87% 30.12 in 6.2 mi West 23.0 mph - N/A   Mostly Cloudy
8:33 PM 46.4 °F 38.3 °F 42.8 °F 87% 30.12 in 6.2 mi West 23.0 mph - N/A   Mostly Cloudy
8:40 PM 46.4 °F 38.1 °F 42.8 °F 87% 30.12 in 6.2 mi West 24.2 mph - N/A   Mostly Cloudy
8:51 PM 46.4 °F 38.3 °F 42.8 °F 87% 30.12 in 6.2 mi West 23.0 mph - N/A   Mostly Cloudy
8:55 PM 46.4 °F 38.3 °F 42.8 °F 87% 30.12 in 6.2 mi West 23.0 mph - N/A   Mostly Cloudy
8:59 PM 46.4 °F 38.1 °F 42.8 °F 87% 30.12 in 6.2 mi West 24.2 mph - N/A   Mostly Cloudy
9:25 PM 46.4 °F 38.3 °F 42.8 °F 87% 30.15 in 6.2 mi West 23.0 mph - N/A   Mostly Cloudy
9:39 PM 46.4 °F 38.3 °F 42.8 °F 87% 30.12 in 6.2 mi West 23.0 mph - N/A   Overcast
9:49 PM 46.4 °F 38.1 °F 42.8 °F 87% 30.12 in 6.2 mi West 24.2 mph - N/A   Overcast
9:55 PM 48.2 °F - 42.8 °F 82% 30.12 in 6.2 mi West 24.2 mph - N/A   Overcast
10:25 PM 46.4 °F 37.9 °F 42.8 °F 87% 30.12 in 6.2 mi West 25.3 mph - N/A   Overcast
10:55 PM 48.2 °F - 42.8 °F 82% 30.12 in 6.2 mi West 24.2 mph - N/A   Overcast
11:25 PM 48.2 °F - 42.8 °F 82% 30.12 in 6.2 mi West 25.3 mph - N/A   Mostly Cloudy
11:49 PM 46.4 °F 38.1 °F 42.8 °F 87% 30.12 in 6.2 mi West 24.2 mph - N/A   Overcast
11:55 PM 46.4 °F 37.9 °F 42.8 °F 87% 30.12 in 6.2 mi West 25.3 mph - N/A   Overcast
11:59 PM 46.4 °F 37.7 °F 42.8 °F 87% 30.12 in 6.2 mi West 26.5 mph - N/A   Mostly Cloudy